Regional Weather Roundup
Issued by NWS

Home | Current Version | Previous Version | Graphics & Text | Print | Product List | Glossary On
Versions: 1 2 3 4 5 6 7 8 9 10 11 12 13 14 15 16 17 18 19 20 21 22 23 24 25 26 27 28 29 30 31 32 33 34 35 36 37 38 39 40 41 42 43 44 45 46 47 48 49 50
000
ASUS43 KBIS 190310
RWRND

NORTH DAKOTA REGIONAL WEATHER ROUNDUP
NATIONAL WEATHER SERVICE BISMARCK ND
1000 PM CDT FRI AUG 18 2017

NOTE: "FAIR" INDICATES FEW OR NO CLOUDS BELOW 12,000 FEET WITH NO
SIGNIFICANT WEATHER AND/OR OBSTRUCTIONS TO VISIBILITY.


NDZ001>003-009>011-017-190400-
NORTHWEST NORTH DAKOTA

CITY           SKY/WX    TMP DP  RH WIND       PRES   REMARKS
WILLISTON      FAIR      71  51  49 SE5       29.85S
MINOT          FAIR      68  53  58 SE3       29.86R
MINOT AFB        N/A     65  50  57 S7        29.85R
$$

NDZ018>021-031>035-040>046-190400-
SOUTHWEST NORTH DAKOTA

CITY           SKY/WX    TMP DP  RH WIND       PRES   REMARKS
BISMARCK       FAIR      63  58  83 SE6       29.92R
DICKINSON      FAIR      67  52  58 SE10      29.90R
GARRISON         N/A     67  54  63 CALM      29.89R
HETTINGER ARPT FAIR      66  53  63 SE8       29.94R
$$

NDZ004>008-012>016-024-026-027-054-190400-
NORTHEAST NORTH DAKOTA

CITY           SKY/WX    TMP DP  RH WIND       PRES   REMARKS
GRAND FORKS    FAIR      64  61  90 SW6       29.84R
GRND FRKS AFB  FAIR      61  58  89 W5        29.86R
DEVILS LAKE    FAIR      68  59  73 CALM      29.89R
$$

NDZ022-023-025-028>030-036>039-047>053-190400-
SOUTHEAST NORTH DAKOTA

CITY           SKY/WX    TMP DP  RH WIND       PRES   REMARKS
FARGO          FAIR      65  60  84 S6        29.88R
JAMESTOWN      FAIR      62  57  83 S3        29.91R
$$





USA.gov is the U.S. government's official web portal to all federal, state and local government web resources and services.